Location: Zagreb
(45.8000°N, 16.0000°E)
Time: 01:22:59
(UTC+02:00)

Transit 2A Rocket - Pass Details

Date: 28 January 2022
Orbit: 592 x 909 km, 66.7° (Epoch: 26 May)

Event Time Altitude Azimuth Distance (km) Brightness Sun altitude
Rises 02:33:37 0° 327° (NNW) 3,450 - -49.4°
Reaches altitude 10° 02:36:13 10° 329° (NNW) 2,470 - -49.0°
Maximum altitude 02:41:54 74° 55° (NE) 826 - -48.1°
Drops below altitude 10° 02:47:04 10° 141° (SE) 2,245 - -47.3°
Sets 02:49:20 0° 143° (SE) 3,113 - -46.9°
